St. Paul Lake Elmo, MN

12:08 AM CST on November 19, 2019 (GMT -0600)
St. Paul Lake Elmo

Weather History for K21D - September, 2019

Change the Weather History Date:

Tuesday, September 10, 2019

  Actual Average (KSTP) Record (KSTP)
Temperature  
Mean Temperature 68 °F -  
Max Temperature 77 °F 74 °F 89 °F (2005)
Min Temperature 59 °F 53 °F 46 °F (2014)
Cooling Degree Days 3    
Growing Degree Days 18 (Base 50)    
Moisture  
Dew Point 64 °F    
Average Humidity 87    
Maximum Humidity 100    
Minimum Humidity 61    
Precipitation  
Precipitation 0.01 in - - ()
Sea Level Pressure  
Sea Level Pressure 29.94 in    
Wind  
Wind Speed 5 mph (WSW)    
Max Wind Speed 14 mph    
Max Gust Speed 20 mph    
Visibility 9 miles    
Events      
Averages and records for this station are not official NWS values.
T = Trace of Precipitation, MM = Missing Value Source: NWS Daily Summary

Daily Weather History Graph

Daily Weather History Graph

Search for Another Location

Airport or City:

Astronomy

Sep. 10, 2019 Rise Set
Actual Time 6:43 AM CDT 7:32 PM CDT
Civil Twilight 6:14 AM CDT 8:01 PM CDT
Nautical Twilight 5:38 AM CDT 8:37 PM CDT
Astronomical Twilight 5:01 AM CDT 9:13 PM CDT
Moon 6:19 PM CDT (9/10) 2:58 AM CDT (9/10)
Length of Visible Light 13h 47m
Length of Day
12h 48m
Waxing Gibbous, 89% of the Moon is Illuminated
Sep 10
Waxing Gibbous
Sep 13
Full
Sep 21
Last Quarter
Sep 28
New
Oct 5
First Quarter

Hourly Weather History & Observations

Time (CDT) Temp. Dew Point Humidity Pressure Visibility Wind Dir Wind Speed Gust Speed Precip Events Conditions
12:15 AM 66.2 °F 64.4 °F 94% 29.83 in 10.0 mi WSW 4.6 mph - N/A   Mostly Cloudy
12:16 AM 66.2 °F 64.4 °F 94% 29.83 in 10.0 mi WSW 3.5 mph - N/A   Mostly Cloudy
12:35 AM 64.4 °F 64.4 °F 100% 29.83 in 10.0 mi WSW 3.5 mph - N/A   Scattered Clouds
12:40 AM 64.4 °F 64.4 °F 100% 29.83 in 7.0 mi WSW 4.6 mph - N/A   Scattered Clouds
12:57 AM 64.4 °F 64.4 °F 100% 29.83 in 7.0 mi Calm Calm - N/A   Clear
1:15 AM 64.4 °F 64.4 °F 100% 29.83 in 10.0 mi WSW 5.8 mph - N/A   Clear
1:35 AM 64.4 °F 64.4 °F 100% 29.83 in 10.0 mi WSW 5.8 mph - N/A   Clear
1:55 AM 64.4 °F 64.4 °F 100% 29.82 in 10.0 mi WSW 4.6 mph - N/A   Clear
1:59 AM 64.4 °F 64.4 °F 100% 29.82 in 10.0 mi WSW 4.6 mph - N/A   Clear
2:16 AM 64.4 °F 64.4 °F 100% 29.82 in 10.0 mi WSW 5.8 mph - N/A   Clear
2:35 AM 64.4 °F 64.4 °F 100% 29.82 in 10.0 mi WSW 5.8 mph - N/A   Clear
2:55 AM 66.2 °F 66.2 °F 100% 29.82 in 10.0 mi WSW 6.9 mph - N/A   Clear
2:56 AM 66.2 °F 66.2 °F 100% 29.82 in 10.0 mi WSW 6.9 mph - N/A   Clear
3:18 AM 66.2 °F 64.4 °F 94% 29.81 in 10.0 mi WSW 6.9 mph - N/A   Clear
3:35 AM 66.2 °F 64.4 °F 94% 29.81 in 10.0 mi WSW 5.8 mph - N/A   Clear
3:55 AM 66.2 °F 64.4 °F 94% 29.82 in 10.0 mi WSW 4.6 mph - N/A   Scattered Clouds
3:56 AM 66.2 °F 64.4 °F 94% 29.82 in 10.0 mi WSW 4.6 mph - N/A   Scattered Clouds
4:15 AM 64.4 °F 64.4 °F 100% 29.82 in 10.0 mi WSW 5.8 mph - N/A   Clear
4:19 AM 64.4 °F 64.4 °F 100% 29.82 in 10.0 mi WSW 6.9 mph - N/A   Clear
4:37 AM 64.4 °F 64.4 °F 100% 29.82 in 10.0 mi WSW 6.9 mph - N/A   Clear
4:56 AM 64.4 °F 64.4 °F 100% 29.82 in 10.0 mi WSW 5.8 mph - N/A   Clear
5:15 AM 64.4 °F 64.4 °F 100% 29.82 in 10.0 mi WSW 5.8 mph - N/A   Clear
5:16 AM 64.4 °F 64.4 °F 100% 29.82 in 10.0 mi WSW 5.8 mph - N/A   Clear
5:35 AM 64.4 °F 64.4 °F 100% 29.83 in 7.0 mi WSW 6.9 mph - N/A   Clear
5:36 AM 64.4 °F 64.4 °F 100% 29.83 in 7.0 mi WSW 6.9 mph - N/A   Clear
5:58 AM 64.4 °F 64.4 °F 100% 29.84 in 7.0 mi WSW 8.1 mph - 0.01 in   Scattered Clouds
6:35 AM 66.2 °F 64.4 °F 94% 29.85 in 7.0 mi WSW 5.8 mph - N/A   Mostly Cloudy
6:36 AM 66.2 °F 64.4 °F 94% 29.85 in 7.0 mi WSW 5.8 mph - N/A   Mostly Cloudy
6:55 AM 66.2 °F 66.2 °F 100% 29.86 in 5.0 mi WSW 4.6 mph - N/A   Overcast
6:56 AM 66.2 °F 66.2 °F 100% 29.86 in 5.0 mi WSW 4.6 mph - N/A   Overcast
7:15 AM 68.0 °F 68.0 °F 100% 29.87 in 7.0 mi WSW 4.6 mph - N/A   Overcast
7:37 AM 68.0 °F 68.0 °F 100% 29.88 in 10.0 mi WSW 6.9 mph - N/A   Overcast
7:55 AM 68.0 °F 68.0 °F 100% 29.89 in 10.0 mi WSW 5.8 mph - N/A   Overcast
8:15 AM 68.0 °F 68.0 °F 100% 29.90 in 10.0 mi WSW 4.6 mph - N/A   Overcast
8:16 AM 68.0 °F 68.0 °F 100% 29.90 in 10.0 mi WSW 4.6 mph - N/A   Overcast
8:35 AM 69.8 °F 68.0 °F 94% 29.92 in 10.0 mi WSW 6.9 mph - N/A   Overcast
8:36 AM 69.8 °F 68.0 °F 94% 29.92 in 10.0 mi WSW 5.8 mph - N/A   Overcast
9:02 AM 69.8 °F 68.0 °F 94% 29.92 in 10.0 mi WSW 4.6 mph - N/A   Overcast
9:17 AM 69.8 °F 68.0 °F 94% 29.92 in 10.0 mi WSW 4.6 mph - N/A   Overcast
9:36 AM 69.8 °F 68.0 °F 94% 29.94 in 10.0 mi WSW 4.6 mph - N/A   Overcast
9:55 AM 69.8 °F 68.0 °F 94% 29.94 in 10.0 mi WSW 5.8 mph - N/A   Overcast
10:15 AM 69.8 °F 66.2 °F 88% 29.96 in 10.0 mi WSW 6.9 mph - N/A   Overcast
10:19 AM 69.8 °F 66.2 °F 88% 29.96 in 10.0 mi WSW 11.5 mph - N/A   Overcast
10:37 AM 69.8 °F 66.2 °F 88% 29.95 in 10.0 mi WSW 5.8 mph - N/A   Overcast
11:15 AM 71.6 °F 66.2 °F 83% 29.96 in 10.0 mi WSW 9.2 mph - N/A   Overcast
11:16 AM 71.6 °F 66.2 °F 83% 29.96 in 10.0 mi WSW 9.2 mph - N/A   Overcast
11:35 AM 71.6 °F 66.2 °F 83% 29.96 in 10.0 mi WSW 10.4 mph - N/A   Scattered Clouds
11:58 AM 71.6 °F 66.2 °F 83% 29.97 in 7.0 mi WSW 13.8 mph - N/A   Mostly Cloudy
12:17 PM 73.4 °F 66.2 °F 78% 29.97 in 10.0 mi WSW 11.5 mph - N/A   Mostly Cloudy
12:36 PM 73.4 °F 66.2 °F 78% 29.97 in 10.0 mi WSW 12.7 mph - N/A   Scattered Clouds
12:55 PM 73.4 °F 66.2 °F 78% 29.97 in 10.0 mi WSW 11.5 mph - N/A   Scattered Clouds
12:56 PM 73.4 °F 66.2 °F 78% 29.97 in 10.0 mi WSW 10.4 mph - N/A   Scattered Clouds
1:15 PM 75.2 °F 66.2 °F 73% 29.97 in 7.0 mi WSW 11.5 mph 16.1 mph N/A   Scattered Clouds
1:37 PM 75.2 °F 64.4 °F 69% 29.98 in 10.0 mi WSW 11.5 mph 17.3 mph N/A   Clear
1:55 PM 77.0 °F 64.4 °F 65% 29.99 in 7.0 mi WSW 13.8 mph 19.6 mph N/A   Clear
2:15 PM 77.0 °F 64.4 °F 65% 29.99 in 7.0 mi WSW 10.4 mph 16.1 mph N/A   Scattered Clouds
2:16 PM 77.0 °F 64.4 °F 65% 29.99 in 7.0 mi WSW 10.4 mph 16.1 mph N/A   Scattered Clouds
2:35 PM 77.0 °F 64.4 °F 65% 29.99 in 10.0 mi WSW 10.4 mph - N/A   Scattered Clouds
2:36 PM 77.0 °F 64.4 °F 65% 29.99 in 10.0 mi WSW 11.5 mph - N/A   Scattered Clouds
2:59 PM 77.0 °F 64.4 °F 65% 29.99 in 10.0 mi WSW 9.2 mph - N/A   Clear
3:16 PM 77.0 °F 64.4 °F 65% 29.99 in 10.0 mi WSW 9.2 mph - N/A   Clear
3:36 PM 77.0 °F 64.4 °F 65% 29.99 in 10.0 mi WSW 10.4 mph - N/A   Clear
3:55 PM 77.0 °F 62.6 °F 61% 29.99 in 10.0 mi WSW 12.7 mph 17.3 mph N/A   Clear
3:56 PM 77.0 °F 62.6 °F 61% 29.99 in 10.0 mi WSW 10.4 mph 17.3 mph N/A   Clear
4:15 PM 77.0 °F 64.4 °F 65% 30.00 in 10.0 mi WSW 9.2 mph - N/A   Clear
4:37 PM 77.0 °F 64.4 °F 65% 30.00 in 7.0 mi WSW 5.8 mph - N/A   Clear
4:55 PM 77.0 °F 64.4 °F 65% 30.00 in 10.0 mi WSW 4.6 mph - N/A   Clear
5:15 PM 77.0 °F 62.6 °F 61% 30.01 in 10.0 mi WSW 8.1 mph - N/A   Clear
5:16 PM 77.0 °F 62.6 °F 61% 30.01 in 10.0 mi WSW 8.1 mph - N/A   Clear
5:35 PM 77.0 °F 62.6 °F 61% 30.01 in 10.0 mi WSW 5.8 mph - N/A   Clear
5:36 PM 77.0 °F 62.6 °F 61% 30.01 in 7.0 mi WSW 5.8 mph - N/A   Clear
5:58 PM 77.0 °F 62.6 °F 61% 30.01 in 10.0 mi WSW 6.9 mph - N/A   Clear
6:17 PM 75.2 °F 62.6 °F 65% 30.01 in 10.0 mi WSW 3.5 mph - N/A   Clear
6:36 PM 73.4 °F 62.6 °F 69% 30.01 in 10.0 mi Calm Calm - N/A   Clear
6:55 PM 73.4 °F 62.6 °F 69% 30.01 in 7.0 mi Calm Calm - N/A   Clear
6:56 PM 73.4 °F 62.6 °F 69% 30.01 in 7.0 mi Calm Calm - N/A   Clear
7:15 PM 71.6 °F 62.6 °F 73% 30.01 in 10.0 mi Calm Calm - N/A   Clear
7:19 PM 69.8 °F 62.6 °F 78% 30.01 in 10.0 mi Calm Calm - N/A   Clear
7:37 PM 68.0 °F 62.6 °F 83% 30.02 in 7.0 mi Calm Calm - N/A   Clear
7:56 PM 66.2 °F 62.6 °F 88% 30.03 in 10.0 mi Calm Calm - N/A   Clear
8:15 PM 64.4 °F 64.4 °F 100% 30.04 in 10.0 mi Calm Calm - N/A   Clear
8:16 PM 64.4 °F 64.4 °F 100% 30.04 in 10.0 mi Calm Calm - N/A   Clear
8:35 PM 62.6 °F 62.6 °F 100% 30.04 in 10.0 mi Calm Calm - N/A   Clear
8:59 PM 62.6 °F 60.8 °F 94% 30.05 in 7.0 mi Calm Calm - N/A   Clear
9:16 PM 62.6 °F 60.8 °F 94% 30.04 in 10.0 mi Calm Calm - N/A   Clear
9:35 PM 62.6 °F 62.6 °F 100% 30.05 in 10.0 mi Calm Calm - N/A   Clear
9:55 PM 62.6 °F 60.8 °F 94% 30.05 in 10.0 mi Calm Calm - N/A   Clear
9:56 PM 60.8 °F 60.8 °F 100% 30.05 in 10.0 mi Calm Calm - N/A   Clear
10:15 PM 60.8 °F 60.8 °F 100% 30.06 in 10.0 mi Calm Calm - N/A   Clear
10:20 PM 60.8 °F 60.8 °F 100% 30.06 in 10.0 mi Calm Calm - N/A   Clear
10:37 PM 59.0 °F 59.0 °F 100% 30.07 in 10.0 mi Calm Calm - N/A   Clear
10:56 PM 60.8 °F 60.8 °F 100% 30.07 in 10.0 mi Calm Calm - N/A   Clear
11:15 PM 59.0 °F 59.0 °F 100% 30.07 in 10.0 mi Calm Calm - N/A   Clear
11:16 PM 59.0 °F 59.0 °F 100% 30.07 in 10.0 mi Calm Calm - N/A   Clear
11:35 PM 59.0 °F 59.0 °F 100% 30.07 in 7.0 mi Calm Calm - N/A   Clear
11:36 PM 59.0 °F 59.0 °F 100% 30.07 in 10.0 mi Calm Calm - N/A   Clear
11:59 PM 62.6 °F 62.6 °F 100% 30.06 in 10.0 mi WSW 5.8 mph - N/A   Clear